Weather in Mihaylyuchka

Ukraine / Khmelnitsky District     50°17′23″N   27°18′38″E
temp.,
°C
wind,
m/s
gust,
m/s
humid.,
%
clouds,
%
prec.,
mm/h
press.,
hPa
HPBL,
m
19 may, wed
wed1900:00+11nw61198100 0.5 1000412
03:00+12nw61197100 0.5 1001602
06:00+10nw71394100 0.3 1002652
09:00+10nw71391100 1.5 1004748
12:00+12nw71177100 0.4 10051203
15:00+15nw61165100 0.4 10061571
18:00+13wnw61085100 0.9 1007737
21:00+11wnw61192100 1.4 1009491
20 may, thu
thu2000:00+10wnw4995100 0.1 1010414
03:00+9wnw489825 0.1 1010260
06:00+7wnw389821 0.0 1010218
09:00+12nw478249 0.0 1010587
12:00+16nnw456398 0.1 10101472
15:00+16nnw4564100 1.0 10101153
18:00+15n5770100 0.3 10111005
21:00+12n3880100 0.5 1013245
21 may, fri
fri2100:00+10n2284100 0.0 101437
03:00+9nnw2585100 0.0 101591
06:00+8nne2790100 0.0 1016162
09:00+13nne357387 0.0 1017457
12:00+16n3453100 0.0 10171436
15:00+18n334540 0.0 10172080
18:00+18n224637 0.0 10161665
21:00+13nne017083 0.0 101811
22 may, sat
sat2200:00+10s11815 0.0 101810
03:00+8sse33791 0.0 101832
06:00+8s23825 0.0 101841
09:00+15sse356336 0.0 1017428
12:00+18sse3450100 0.0 10161330
15:00+21sse4545100 0.0 10141764
18:00+19sse4660100 0.0 10131059
21:00+14sse3783100 0.0 1013121
23 may, sun
sun2300:00+12s3893100 0.0 1012140
03:00+12sw31088100 0.0 1011337
06:00+13s3586100 0.0 1011135
09:00+15w51073100 0.0 1011742
12:00+13wnw3576100 0.0 1012553
15:00+16wnw4564100 0.0 1012907
18:00+12wsw2491100 0.8 1013295
21:00+11w2291100 1.1 101431